This demonstration page uses our WeatherBlox Daily Observations layout. Learn more.

Left ArrowRight Arrow

41.12389, -100.76542

Hourly Observations for November 22, 2015

Temp ( °F °C ) Dew Point ( °F °C ) Humidity (%) Winds ( mph kmh ) Pressure ( in mb ) Visibility ( mi km ) Precip ( " mm )
12:53 am 00:53 Clear 19 -7.2 14 -10 81 81 NW 5 7 30.16 1021 10 16 0.00 0.00
1:53 am 01:53 Clear 20 -6.7 16 -8.9 85 85 NW 6 9 30.14 1021 10 16 0.00 0.00
2:53 am 02:53 Clear 19 -7.2 15 -9.4 84 84 WNW 6 9 30.15 1021 10 16 0.00 0.00
3:53 am 03:53 Clear 15 -9.4 12 -11.1 88 88 NW 7 11 30.15 1021 10 16 0.00 0.00
4:53 am 04:53 Clear 15 -9.4 11 -11.7 84 84 WNW 7 11 30.14 1021 10 16 0.00 0.00
6:53 am 06:53 Clear 15 -9.4 11 -11.7 84 84 NW 6 9 30.14 1021 10 16 0.00 0.00
7:53 am 07:53 Sunny 17 -8.3 12 -11.1 80 80 NW 7 11 30.15 1021 10 16 0.00 0.00
8:53 am 08:53 Sunny 23 -5 18 -7.8 81 81 W 5 7 30.14 1021 10 16 0.00 0.00
9:53 am 09:53 Sunny 32 0 23 -5 69 69 W 10 17 30.13 1020 10 16 0.00 0.00
10:53 am 10:53 Sunny 39 3.9 21 -6.1 48 48 W 15 24 30.11 1020 10 16 0.00 0.00
11:53 am 11:53 Sunny 46 7.8 19 -7.2 34 34 W 20 31 30.08 1019 10 16 0.00 0.00
12:53 pm 12:53 Sunny 51 10.6 20 -6.7 29 29 WNW 17 28 30.04 1017 10 16 0.00 0.00
1:53 pm 13:53 Sunny 55 12.8 21 -6.1 26 26 W 17 28 30.01 1016 10 16 0.00 0.00
2:53 pm 14:53 Sunny 57 13.9 21 -6.1 25 25 W 15 24 30.01 1016 10 16 0.00 0.00
3:53 pm 15:53 Sunny 56 13.3 20 -6.7 24 24 W 14 22 30.02 1017 10 16 0.00 0.00
4:53 pm 16:53 Sunny 48 8.9 24 -4.4 39 39 NW 8 13 30.05 1018 10 16 0.00 0.00
5:53 pm 17:53 Clear 41 5 23 -5 49 49 NW 6 9 30.09 1019 10 16 0.00 0.00
6:53 pm 18:53 Clear 37 2.8 21 -6.1 52 52 Calm 30.11 1020 10 16 0.00 0.00
7:53 pm 19:53 Clear 29 -1.7 22 -5.6 75 75 Calm 30.14 1021 10 16 0.00 0.00
8:53 pm 20:53 Clear 30 -1.1 21 -6.1 69 69 Calm 30.14 1021 10 16 0.00 0.00
9:53 pm 21:53 Clear 26 -3.3 20 -6.7 78 78 Calm 30.15 1021 10 16 0.00 0.00
10:53 pm 22:53 Clear 24 -4.4 19 -7.2 81 81 WSW 5 7 30.13 1020 10 16 0.00 0.00
11:53 pm 23:53 Clear 23 -5 18 -7.8 81 81 Calm 30.13 1020 10 16 0.00 0.00

Powered by AerisWeather